This is the latest recevied weather packets stored in our database for station/object JH7UAX-10. If no packets are shown the sender has not sent any weather packets the latest 10 day(s).
| Time | Temp. | Humidity | Pressure | Rain* | Wind** | Luminosity | Snow |
|---|---|---|---|---|---|---|---|
| 1777900077 | 7.78° C | 87% | 1015.8 hPa | 0 mm | - | - | - |
| 1777899179 | 7.78° C | 90% | 1015.1 hPa | 0 mm | - | - | - |
| 1777898705 | 7.78° C | 90% | 1014.9 hPa | 0 mm | - | - | - |
| 1777898279 | 7.78° C | 90% | 1014.5 hPa | 0 mm | - | - | - |
| 1777897805 | 7.78° C | 89% | 1014.1 hPa | 0 mm | - | - | - |
| 1777897379 | 8.33° C | 88% | 1013.9 hPa | 0 mm | - | - | - |
| 1777896478 | 8.33° C | 89% | 1013.6 hPa | 0 mm | - | - | - |
| 1777896004 | 8.89° C | 89% | 1013.4 hPa | 0 mm | - | - | - |
| 1777895578 | 8.89° C | 89% | 1013 hPa | 0 mm | - | - | - |
| 1777894679 | 8.89° C | 90% | 1012.7 hPa | 0 mm | - | - | - |
| 1777893778 | 9.44° C | 91% | 1012.2 hPa | 0 mm | - | - | - |
| 1777892878 | 8.89° C | 92% | 1011.4 hPa | 0 mm | - | - | - |
| 1777891977 | 9.44° C | 93% | 1010.7 hPa | 0 mm | - | - | - |
| 1777891505 | 9.44° C | 93% | 1010.3 hPa | 0 mm | - | - | - |
| 1777891079 | 9.44° C | 92% | 1009.9 hPa | 0 mm | - | - | - |
| 1777890605 | 10° C | 92% | 1009.5 hPa | 0 mm | - | - | - |
| 1777890179 | 10.56° C | 91% | 1009.1 hPa | 0 mm | - | - | - |
| 1777889705 | 10.56° C | 90% | 1009.1 hPa | 0 mm | - | - | - |
| 1777889279 | 11.11° C | 89% | 1008.9 hPa | 0 mm | - | - | - |
| 1777888379 | 11.11° C | 88% | 1008.7 hPa | 0 mm | - | - | - |
| 1777887478 | 11.11° C | 86% | 1008.7 hPa | 0 mm | - | - | - |
| 1777886578 | 11.67° C | 85% | 1008.3 hPa | 0 mm | - | - | - |
| 1777886106 | 12.22° C | 85% | 1007.9 hPa | 0 mm | - | - | - |
| 1777885678 | 12.22° C | 85% | 1007.7 hPa | 0 mm | - | - | - |
| 1777885205 | 12.22° C | 85% | 1007.6 hPa | 0 mm | - | - | - |
* Rain latest hour (hover to see other rain measurements)
** Current wind speed in m/s (hover to see current wind gust speed)